FW3075 Weather Reports


time (UTC)temp
C
wind
direction
speed
KPH
gust
KPH
rain 1hr
cm
rain 24hr
cm
rain mn
cm
humidity
%
barometer
mb
20260504041508 13 211 1.6 8.0 0.00 0.00 0.00 63 1005.6
20260504041010 14 211 0.0 9.7 0.00 0.00 0.00 63 1005.7
20260504040511 14 208 0.0 9.7 0.00 0.00 0.00 63 1005.7
20260504040014 14 227 0.0 8.0 0.00 0.00 0.00 62 1005.7
20260504035507 14 225 1.6 8.0 0.00 0.00 0.00 62 1005.7
20260504035006 14 225 1.6 4.8 0.00 0.00 0.00 62 1005.7
20260504034507 14 220 1.6 6.4 0.00 0.00 0.00 62 1005.8
20260504033513 14 228 0.0 4.8 0.00 0.00 0.00 62 1005.8
20260504033007 14 236 0.0 4.8 0.00 0.00 0.00 61 1005.9
20260504032507 14 236 0.0 4.8 0.00 0.00 0.00 61 1006.0
20260504032011 14 240 0.0 3.2 0.00 0.00 0.00 60 1006.1
20260504031505 15 240 0.0 3.2 0.00 0.00 0.00 60 1006.1
20260504031012 15 227 0.0 3.2 0.00 0.00 0.00 59 1006.1
20260504030505 15 227 0.0 3.2 0.00 0.00 0.00 60 1006.3
20260504030023 15 227 0.0 3.2 0.00 0.00 0.00 59 1006.2
20260504025505 15 230 0.0 4.8 0.00 0.00 0.00 59 1006.2
20260504025006 15 230 0.0 4.8 0.00 0.00 0.00 59 1006.2
20260504024505 15 230 0.0 3.2 0.00 0.00 0.00 58 1006.3
20260504024012 15 229 0.0 9.7 0.00 0.00 0.00 58 1006.2
20260504023510 15 227 0.0 9.7 0.00 0.00 0.00 57 1006.1
20260504023006 15 211 0.0 3.2 0.00 0.00 0.00 57 1006.2
20260504022006 16 211 0.0 3.2 0.00 0.00 0.00 56 1006.2
20260504021505 16 211 0.0 4.8 0.00 0.00 0.00 57 1006.1
20260504021010 16 211 0.0 4.8 0.00 0.00 0.00 56 1006.1
20260504020011 16 228 0.0 3.2 0.00 0.00 0.00 55 1005.9
20260504015006 16 229 1.6 8.0 0.00 0.00 0.00 54 1005.8
20260504014506 16 234 1.6 11.3 0.00 0.00 0.00 54 1005.8
20260504014019 16 229 1.6 11.3 0.00 0.00 0.00 53 1005.7
20260504013505 16 253 0.0 8.0 0.00 0.00 0.00 54 1005.7
20260504013006 16 229 1.6 6.4 0.00 0.00 0.00 54 1005.6
20260504012509 17 230 1.6 6.4 0.00 0.00 0.00 53 1005.6
20260504012006 17 263 1.6 8.0 0.00 0.00 0.00 52 1005.7
20260504011012 17 226 1.6 6.4 0.00 0.00 0.00 52 1005.6
20260504010506 17 248 1.6 12.9 0.00 0.00 0.00 51 1005.6
20260504005506 17 205 1.6 8.0 0.00 0.00 0.00 49 1005.5
20260504005006 18 200 0.0 3.2 0.00 0.00 0.00 49 1005.5
20260504004505 18 198 0.0 9.7 0.00 0.00 0.00 48 1005.5
20260504004027 18 225 1.6 9.7 0.00 0.00 0.00 47 1005.6
20260504003508 18 213 1.6 8.0 0.00 0.00 0.00 47 1005.6
20260504003009 18 240 1.6 4.8 0.00 0.00 0.00 46 1005.6
20260504002508 18 219 1.6 8.0 0.00 0.00 0.00 46 1005.5
20260504001507 19 214 3.2 9.7 0.00 0.00 0.00 47 1005.6
20260504001007 19 211 3.2 11.3 0.00 0.00 0.00 45 1005.6
20260504000009 19 223 3.2 11.3 0.00 0.00 0.00 44 1005.6
20260503235006 19 229 3.2 12.9 0.00 0.00 0.00 44 1005.6
20260503234013 20 202 3.2 12.9 0.00 0.00 0.00 44 1005.6
20260503233506 20 277 3.2 12.9 0.00 0.00 0.00 43 1005.6
20260503233009 20 292 4.8 11.3 0.00 0.00 0.00 42 1005.6
20260503232009 20 224 4.8 17.7 0.00 0.00 0.00 43 1005.5
20260503231506 20 196 4.8 16.1 0.00 0.00 0.00 42 1005.5
20260503231009 20 220 4.8 16.1 0.00 0.00 0.00 43 1005.6
20260503230508 20 211 4.8 17.7 0.00 0.00 0.00 42 1005.6
20260503230022 20 237 4.8 17.7 0.00 0.00 0.00 42 1005.7
20260503225507 20 285 4.8 12.9 0.00 0.00 0.00 40 1005.7
20260503225012 21 227 4.8 12.9 0.00 0.00 0.00 39 1005.8
20260503224507 21 261 4.8 19.3 0.00 0.00 0.00 40 1005.7
20260503224006 21 240 3.2 19.3 0.00 0.00 0.00 41 1005.9
20260503223508 21 198 3.2 16.1 0.00 0.00 0.00 39 1005.9
20260503223009 21 242 1.6 12.9 0.00 0.00 0.00 41 1005.9
20260503222505 21 215 1.6 14.5 0.00 0.00 0.00 42 1006.0
20260503222008 21 219 3.2 19.3 0.00 0.00 0.00 42 1006.0
20260503221513 20 209 3.2 19.3 0.00 0.00 0.00 42 1006.1
20260503221012 20 225 3.2 16.1 0.00 0.00 0.00 44 1006.1
20260503220505 20 206 3.2 9.7 0.00 0.00 0.00 44 1006.2
20260503220008 20 237 3.2 12.9 0.00 0.00 0.00 42 1006.3
20260503215506 20 206 4.8 20.9 0.00 0.00 0.00 43 1006.4
20260503215005 20 217 4.8 20.9 0.00 0.00 0.00 41 1006.4
20260503214510 20 186 4.8 14.5 0.00 0.00 0.00 42 1006.3
20260503214008 20 231 4.8 16.1 0.00 0.00 0.00 41 1006.4
20260503213505 20 219 3.2 29.0 0.00 0.00 0.00 43 1006.5
20260503212505 19 202 3.2 22.5 0.00 0.00 0.00 43 1006.8
20260503212007 19 242 3.2 16.1 0.00 0.00 0.00 45 1006.8
20260503211510 19 223 4.8 16.1 0.00 0.00 0.00 43 1006.9
20260503211007 19 250 4.8 17.7 0.00 0.00 0.00 42 1007.1
20260503210010 19 217 4.8 19.3 0.00 0.00 0.00 41 1007.1
20260503205504 20 288 6.4 24.1 0.00 0.00 0.00 39 1007.3
20260503205009 20 225 6.4 24.1 0.00 0.00 0.00 38 1007.4
20260503204508 20 238 6.4 19.3 0.00 0.00 0.00 39 1007.4
20260503204006 20 177 6.4 19.3 0.00 0.00 0.00 38 1007.6
20260503203507 20 224 6.4 22.5 0.00 0.00 0.00 38 1007.7
20260503203008 20 213 6.4 22.5 0.00 0.00 0.00 39 1007.8
20260503202509 20 236 6.4 17.7 0.00 0.00 0.00 40 1007.8
20260503201507 20 229 6.4 19.3 0.00 0.00 0.00 41 1008.0
20260503201005 19 226 6.4 20.9 0.00 0.00 0.00 42 1008.1
20260503200507 19 174 6.4 17.7 0.00 0.00 0.00 40 1008.0
20260503194009 17 232 3.2 17.7 0.00 0.00 0.00 51 1008.4
20260503193506 17 171 3.2 16.1 0.00 0.00 0.00 51 1008.6
20260503192505 17 156 3.2 17.7 0.00 0.00 0.00 51 1008.5
20260503192012 17 206 3.2 17.7 0.00 0.00 0.00 57 1008.7
20260503191510 16 205 3.2 17.7 0.00 0.00 0.00 55 1008.8
20260503191006 16 240 4.8 17.7 0.00 0.00 0.00 57 1008.8
20260503185507 15 169 3.2 16.1 0.00 0.00 0.00 57 1009.0
20260503183508 14 190 3.2 11.3 0.00 0.00 0.00 63 1009.4
20260503183008 13 170 3.2 11.3 0.00 0.00 0.00 65 1009.5
20260503182505 13 224 3.2 16.1 0.00 0.00 0.00 67 1009.5
20260503181505 12 247 1.6 9.7 0.00 0.00 0.00 68 1009.7
20260503175505 11 215 0.0 4.8 0.00 0.00 0.00 71 1010.3
20260503174504 11 227 1.6 4.8 0.00 0.00 0.00 73 1010.8
20260503174008 11 313 1.6 4.8 0.00 0.00 0.00 76 1011.1
20260503173506 11 198 1.6 4.8 0.00 0.00 0.00 76 1011.4
20260503173010 11 221 1.6 6.4 0.00 0.00 0.00 76 1011.3
20260503172012 11 198 1.6 4.8 0.00 0.00 0.00 78 1011.6
20260503171504 10 242 1.6 9.7 0.00 0.00 0.00 77 1011.9
20260503171007 11 234 1.6 9.7 0.00 0.00 0.00 75 1011.9
20260503170506 10 91 1.6 8.0 0.00 0.00 0.00 74 1012.0
20260503151006 11 269 3.2 12.9 0.00 0.00 0.00 58 1013.2
20260503150504 11 275 3.2 11.3 0.00 0.00 0.00 59 1013.2
20260503131005 8 227 1.6 12.9 0.00 0.00 0.00 64 1013.6
20260503130506 8 243 3.2 12.9 0.00 0.00 0.00 64 1013.7
20260503110504 7 234 1.6 14.5 0.00 0.00 0.00 65 1013.7
20260503090504 6 231 0.0 6.4 0.00 0.00 0.00 63 1014.1
20260503081503 6 210 0.0 0.0 0.00 0.00 0.00 61 1014.3
20260503081004 6 209 0.0 0.0 0.00 0.00 0.00 61 1014.3
20260503080509 6 209 0.0 0.0 0.00 0.00 0.00 60 1014.4
20260503072504 6 249 0.0 0.0 0.00 0.00 0.00 61 1014.4
20260503072007 6 249 0.0 0.0 0.00 0.00 0.00 61 1014.4
20260503071503 6 245 0.0 0.0 0.00 0.00 0.00 60 1014.4
20260503071007 6 245 0.0 0.0 0.00 0.00 0.00 61 1014.4
20260503070503 6 245 0.0 0.0 0.00 0.00 0.00 61 1014.4
20260503055007 6 242 0.0 0.0 0.00 0.00 0.00 60 1015.0
20260503054507 6 242 0.0 0.0 0.00 0.00 0.00 58 1015.0
20260503054007 6 242 0.0 0.0 0.00 0.00 0.00 59 1015.0
20260503053506 6 242 0.0 0.0 0.00 0.00 0.00 58 1015.1
20260503052006 6 244 0.0 0.0 0.00 0.00 0.00 58 1015.3
20260503051007 6 244 0.0 0.0 0.00 0.00 0.00 59 1015.4
20260503050511 6 244 0.0 0.0 0.00 0.00 0.00 58 1015.3
20260503050023 7 244 0.0 0.0 0.00 0.00 0.00 58 1015.4
20260503045509 7 244 0.0 0.0 0.00 0.00 0.00 58 1015.5
20260503045008 7 244 0.0 0.0 0.00 0.00 0.00 58 1015.5
20260503044505 7 244 0.0 0.0 0.00 0.00 0.00 58 1015.5
20260503044009 7 244 0.0 0.0 0.00 0.00 0.00 58 1015.5
20260503043508 7 244 0.0 0.0 0.00 0.00 0.00 58 1015.4
20260503043006 7 244 0.0 0.0 0.00 0.00 0.00 58 1015.5